Location: Newark
(41.1192°N, 81.5292°W)
Time: 15:58:52
(UTC+00:00)

N. Korean satellite - Pass Details

Date: 14 November 2019
Orbit: 455 x 506 km, 97.2° (Epoch: 12 December)

Event Time Altitude Azimuth Distance (km) Brightness Sun altitude
Rises 11:25:13 0° 10° (N) 2,620 10.2 -9.2°
Reaches altitude 10° 11:27:19 10° 9° (N) 1,728 9.3 -8.8°
Maximum altitude 11:31:03 77° 284° (WNW) 523 6.6 -8.1°
Drops below altitude 10° 11:34:42 10° 198° (SSW) 1,699 9.3 -7.5°
Sets 11:36:46 0° 197° (SSW) 2,571 10.3 -7.1°
